TimeCST,TemperatureF,Dew PointF,Humidity,Sea Level PressureIn,VisibilityMPH,Wind Direction,Wind SpeedMPH,Gust SpeedMPH,PrecipitationIn,Events,Conditions,WindDirDegrees,DateUTC
12:15 AM,46.4,37.4,71,29.99,10.0,South,8.1,-,N/A,,Clear,190,2011-11-06 05:15:00
12:35 AM,46.4,37.4,71,29.99,10.0,South,6.9,-,N/A,,Clear,190,2011-11-06 05:35:00
12:55 AM,46.4,37.4,71,29.99,10.0,South,10.4,-,N/A,,Clear,190,2011-11-06 05:55:00
1:15 AM,46.4,37.4,71,29.99,10.0,South,8.1,-,N/A,,Clear,190,2011-11-06 06:15:00
1:35 AM,46.4,37.4,71,29.99,10.0,South,6.9,-,N/A,,Clear,190,2011-11-06 06:35:00
1:55 AM,46.4,37.4,71,29.98,10.0,South,6.9,-,N/A,,Clear,190,2011-11-06 06:55:00
1:15 AM,46.4,37.4,71,29.98,10.0,South,5.8,-,N/A,,Clear,180,2011-11-06 07:15:00
1:35 AM,46.4,37.4,71,29.97,10.0,South,6.9,-,N/A,,Clear,170,2011-11-06 07:35:00
1:55 AM,46.4,37.4,71,29.96,10.0,South,9.2,-,N/A,,Clear,180,2011-11-06 07:55:00
2:15 AM,46.4,37.4,71,29.95,10.0,South,11.5,-,N/A,,Clear,170,2011-11-06 08:15:00
2:35 AM,46.4,39.2,76,29.94,10.0,South,11.5,-,N/A,,Clear,180,2011-11-06 08:35:00
2:55 AM,46.4,39.2,76,29.94,10.0,South,11.5,-,N/A,,Clear,190,2011-11-06 08:55:00
3:15 AM,46.4,39.2,76,29.95,10.0,South,10.4,17.3,N/A,,Clear,190,2011-11-06 09:15:00
3:35 AM,48.2,39.2,71,29.94,10.0,South,11.5,-,N/A,,Clear,190,2011-11-06 09:35:00
3:55 AM,48.2,39.2,71,29.94,10.0,South,10.4,-,N/A,,Clear,190,2011-11-06 09:55:00
4:15 AM,48.2,37.4,66,29.93,10.0,SSW,10.4,17.3,N/A,,Clear,200,2011-11-06 10:15:00
5:15 AM,48.2,37.4,66,29.93,10.0,SSW,10.4,-,N/A,,Clear,200,2011-11-06 11:15:00
5:35 AM,48.2,37.4,66,29.92,10.0,South,12.7,20.7,N/A,,Clear,190,2011-11-06 11:35:00
5:55 AM,48.2,37.4,66,29.91,10.0,SSW,11.5,17.3,N/A,,Clear,200,2011-11-06 11:55:00
6:15 AM,48.2,37.4,66,29.91,10.0,SSW,9.2,18.4,N/A,,Clear,200,2011-11-06 12:15:00
6:35 AM,48.2,37.4,66,29.91,10.0,SSW,9.2,-,N/A,,Clear,200,2011-11-06 12:35:00
6:55 AM,48.2,37.4,66,29.90,10.0,SSW,12.7,-,N/A,,Clear,210,2011-11-06 12:55:00
7:15 AM,48.2,39.2,71,29.90,10.0,SSW,11.5,18.4,N/A,,Clear,200,2011-11-06 13:15:00
7:35 AM,50.0,39.2,66,29.90,10.0,SSW,13.8,20.7,N/A,,Clear,200,2011-11-06 13:35:00
7:55 AM,50.0,39.2,66,29.89,9.0,South,12.7,21.9,N/A,,Clear,190,2011-11-06 13:55:00
8:15 AM,51.8,39.2,62,29.88,10.0,SSW,16.1,25.3,N/A,,Clear,200,2011-11-06 14:15:00
8:35 AM,51.8,41.0,67,29.88,10.0,SSW,17.3,23.0,N/A,,Clear,200,2011-11-06 14:35:00
8:55 AM,51.8,41.0,67,29.88,10.0,SSW,13.8,25.3,N/A,,Mostly Cloudy,210,2011-11-06 14:55:00
9:15 AM,51.8,41.0,67,29.87,9.0,SSW,15.0,23.0,N/A,,Overcast,210,2011-11-06 15:15:00
10:15 AM,55.4,42.8,63,29.86,9.0,SSW,19.6,27.6,N/A,,Clear,210,2011-11-06 16:15:00
10:35 AM,55.4,42.8,63,29.85,9.0,SSW,20.7,26.5,N/A,,Clear,210,2011-11-06 16:35:00
10:55 AM,55.4,42.8,63,29.84,10.0,SSW,17.3,23.0,N/A,,Clear,210,2011-11-06 16:55:00
11:15 AM,53.6,42.8,67,29.84,9.0,SW,21.9,27.6,N/A,,Clear,220,2011-11-06 17:15:00
11:35 AM,55.4,44.6,67,29.83,9.0,SSW,15.0,32.2,N/A,,Clear,210,2011-11-06 17:35:00
11:55 AM,55.4,44.6,67,29.82,10.0,SSW,16.1,28.8,N/A,,Clear,210,2011-11-06 17:55:00
12:15 PM,55.4,44.6,67,29.81,9.0,SW,17.3,21.9,N/A,,Scattered Clouds,220,2011-11-06 18:15:00
12:35 PM,55.4,44.6,67,29.81,9.0,SW,16.1,25.3,N/A,,Overcast,230,2011-11-06 18:35:00
12:55 PM,55.4,44.6,67,29.81,10.0,SW,17.3,27.6,N/A,,Overcast,230,2011-11-06 18:55:00
1:15 PM,55.4,44.6,67,29.81,10.0,SW,20.7,26.5,N/A,,Overcast,220,2011-11-06 19:15:00
1:35 PM,55.4,44.6,67,29.80,10.0,SSW,19.6,27.6,N/A,,Overcast,210,2011-11-06 19:35:00
1:55 PM,55.4,46.4,72,29.80,9.0,SSW,20.7,27.6,N/A,,Overcast,210,2011-11-06 19:55:00
2:55 PM,55.4,46.4,72,29.81,10.0,SW,23.0,33.4,N/A,,Overcast,220,2011-11-06 20:55:00
3:15 PM,57.2,46.4,67,29.81,10.0,SW,21.9,28.8,N/A,,Overcast,220,2011-11-06 21:15:00
3:35 PM,55.4,46.4,72,29.81,10.0,SSW,18.4,27.6,N/A,,Overcast,210,2011-11-06 21:35:00
3:55 PM,55.4,46.4,72,29.81,10.0,SW,15.0,26.5,N/A,,Overcast,220,2011-11-06 21:55:00
4:15 PM,55.4,46.4,72,29.81,9.0,SW,15.0,21.9,N/A,,Overcast,220,2011-11-06 22:15:00
4:35 PM,55.4,46.4,72,29.81,9.0,SW,15.0,25.3,N/A,,Overcast,220,2011-11-06 22:35:00
4:55 PM,55.4,46.4,72,29.82,10.0,SW,13.8,26.5,N/A,,Overcast,220,2011-11-06 22:55:00
5:15 PM,55.4,46.4,72,29.82,10.0,SW,16.1,23.0,N/A,,Scattered Clouds,220,2011-11-06 23:15:00
5:35 PM,55.4,46.4,72,29.83,10.0,SSW,15.0,23.0,N/A,,Clear,210,2011-11-06 23:35:00
5:55 PM,55.4,46.4,72,29.83,10.0,SSW,16.1,25.3,N/A,,Clear,210,2011-11-06 23:55:00
6:55 PM,55.4,46.4,72,29.84,10.0,SW,12.7,19.6,N/A,,Clear,220,2011-11-07 00:55:00
7:15 PM,53.6,48.2,82,29.85,10.0,SSW,18.4,21.9,N/A,,Clear,210,2011-11-07 01:15:00
7:35 PM,53.6,48.2,82,29.85,10.0,SW,15.0,21.9,N/A,,Clear,220,2011-11-07 01:35:00
7:55 PM,53.6,48.2,82,29.86,10.0,SW,15.0,20.7,N/A,,Partly Cloudy,220,2011-11-07 01:55:00
8:15 PM,53.6,48.2,82,29.87,10.0,SW,13.8,23.0,N/A,,Clear,220,2011-11-07 02:15:00
8:35 PM,53.6,46.4,77,29.87,10.0,SW,13.8,18.4,N/A,,Clear,230,2011-11-07 02:35:00
9:15 PM,53.6,44.6,72,29.90,10.0,WSW,9.2,-,N/A,,Clear,250,2011-11-07 03:15:00
9:35 PM,53.6,39.2,58,29.92,10.0,West,8.1,16.1,N/A,,Clear,260,2011-11-07 03:35:00
9:55 PM,51.8,37.4,58,29.93,10.0,West,9.2,21.9,N/A,,Clear,260,2011-11-07 03:55:00
10:15 PM,51.8,35.6,54,29.94,10.0,West,15.0,20.7,N/A,,Clear,260,2011-11-07 04:15:00
10:35 PM,51.8,35.6,54,29.95,10.0,WSW,9.2,-,N/A,,Clear,250,2011-11-07 04:35:00
10:55 PM,50.0,33.8,54,29.95,10.0,WSW,10.4,19.6,N/A,,Clear,250,2011-11-07 04:55:00